User: anonymous
Location: Walnut Point State Park
(39.6958°N, 88.0345°W)
Time: 22:46:09
(UTC-05:00)
Language:

Iridium 75 - Orbit

View from above orbital plane
View from above orbital plane
View from above satellite
View from above satellite

Ground track
Ground track

The orbit data is extracted from the following two-line orbital elements,

1 25346U 98032E   14261.50947917  .00000139  00000-0  42686-4 0  9755
2 25346 086.3922 283.1932 0002339 106.7458 004.8556 14.34217100855951
Epoch (UTC): 18 September 2014 12:13:39
Eccentricity: 0.0002339
inclination: 86.3922°
perigee height: 776 km
apogee height: 779 km
right ascension of ascending node: 283.1932°
argument of perigee: 106.7458°
revolutions per day: 14.34217100
mean anomaly at epoch: 4.8556°
orbit number at epoch: 85595

The dashed part of the orbit path shows where the satellite is in the earth's shadow,  

DLR